Showing default

TBA - TO BE ASSIGNED, 64498

Orbit data source: Space-Track

TBA - TO BE ASSIGNED named objects are likely recently launched satellites that are being tracked but not necessarily identified.

Loading next visibility...
Identifier
64498, 2025-133AC
Orbit
LEO
Last TLE update
11 hours ago
Origin
Manufacturer
SpaceX/Seattle
Mission
Operational spacecraft
Bus & Motor
STARLINK V2MO, Unknown motor
Mass
575 kg wet, ~530 kg dry
Launch date (UTC)
2025-06-23 (1 week ago)
Launch vehicle
FALCON 9
Launch site
Air Force Eastern Test Range (AFETR)
Object type
Payload
Rocket body
Debris
Shape & HBR
Unknown
Radar Cross Section
RCS unknown

Expand to show TLE details & history

TLE from 11 hours ago
0 STARLINK-34427
1 64498U 25133AC  25181.91668981 -.01270574  00000-0 -49474-2 0  9998
2 64498  53.1553 219.1484 0000844  81.0514 151.4544 15.88851606  2452
Epoch: 2025-06-30T22:00Z
TLE epoch observation values (Epoch: 2025-06-30T22:00:01.999Z)
Latitude
-39.62797°
Longitude
-171.98204°
Altitude
319.002 km
Speed
7.716 km/s
True Right ascension
05h 08m 59s
True Declination
-39° 26' 53"
Sunlit
Object was in daylight at epoch
Visualization orbit readout
Latitude
-25.13302°
Longitude
-52.85641°
Altitude
316.603 km
Speed
7.718 km/s
Apparent Right ascension
11h 07m 13s
Apparent Declination
-37° 00' 01"
Sunlit
Object is in daylight
Visualization observer readout
Local Sidereal Time
20:36:38
Azimuth
263.47° W
Elevation
-60.594°
Doppler factor
1
Orbital elements
Apogee altitude
306.329 km
Perigee altitude
305.201 km
Semi-major axis
6,683.902 km
Eccentricity
0.00008
Inclination
53.1553°
RAAN
219.1484°
Arg. of periapsis
81.0514°
True anomaly
Unknown
Mean anomaly
151.4544°
Eccentric anomaly
Unknown
Mean motion
3.9719 °/min
Orbital period
90.64 mins
BSTAR
-0.0049474
Loading maneuver chart data...
Loading SW <> Apogee altitude chart data...

TBA - TO BE ASSIGNED Visibility forecast

Observer location: undefined°, undefined°

Span
Click to sort rows by Start time (UTC) header in descending order
Start Az.
Max El. time (UTC)
Max El. Az.
Max El.
End time (UTC)
End Az.
4 mins2025-07-02 04:57:25.785Z222.698° SW2025-07-02 04:59:25.785Z66.228° ENE38.795°2025-07-02 05:01:25.785Z52.659° ENE
|